Location: D�rnast
(49.6426°N, 11.9755°E)
Time: 07:50:26
(UTC+00:00)

N. Korean satellite - Pass Details

Date: 05 December 2021
Orbit: 446 x 491 km, 97.3° (Epoch: 18 January)

Event Time Altitude Azimuth Distance (km) Brightness Sun altitude
Rises 05:48:36 0° 356° (N) 2,472 9.9 -9.9°
Reaches altitude 10° 05:51:20 10° 332° (NNW) 1,588 8.7 -9.5°
Maximum altitude 05:53:14 14° 298° (WNW) 1,338 8.1 -9.2°
Drops below altitude 10° 05:55:07 10° 264° (W) 1,578 8.6 -8.9°
Sets 05:57:49 0° 239° (WSW) 2,435 9.8 -8.5°
